Temp
-11 -11 -11 -11 -11 -9 -8 -8 -10 -11 -12 -11 -11 -11 -11 -11 -11 -10 -9 -10 -9 -9 -9 -9 -9 -9 -8 -8 -8 -8 -8 -8 -8 -8 -8 -8 -8 -8 -7 -7 -7 -7 -8 -8 -8 -8 -8 -8 -8
-11 -11 -11 -11 -10 -9 -8 -9 -10 -11 -12 -12 -11 -11 -11 -11 -11 -11 -10 -10 -9 -9 -9 -9 -9 -9 -9 -9 -9 -8 -8 -8 -8 -8 -8 -8 -8 -8 -8 -7 -7 -7 -7 -8 -8 -8 -8 -8 -8
-12 -12 -12 -11 -10 -8 -9 -10 -11 -12 -12 -12 -12 -12 -11 -12 -11 -11 -11 -11 -10 -10 -10 -9 -10 -9 -9 -9 -9 -9 -9 -8 -9 -9 -9 -8 -8 -8 -8 -8 -8 -7 -7 -8 -8 -8 -8 -8 -8
-12 -12 -12 -10 -9 -9 -10 -10 -11 -11 -12 -12 -12 -12 -11 -12 -12 -11 -11 -11 -11 -10 -10 -10 -10 -10 -9 -9 -9 -9 -9 -9 -9 -9 -9 -9 -9 -8 -8 -8 -8 -8 -8 -8 -8 -8 -8 -8 -8
-13 -12 -12 -10 -9 -9 -11 -12 -12 -12 -12 -12 -13 -12 -12 -12 -12 -11 -11 -11 -11 -10 -10 -11 -10 -10 -10 -10 -9 -9 -9 -9 -9 -9 -9 -9 -9 -9 -8 -8 -8 -8 -8 -8 -8 -8 -8 -8 -8
-13 -13 -12 -10 -10 -10 -11 -12 -12 -12 -12 -12 -12 -12 -12 -12 -12 -12 -11 -12 -11 -11 -11 -11 -11 -10 -10 -10 -10 -10 -9 -9 -9 -9 -9 -9 -9 -9 -9 -9 -9 -8 -8 -8 -8 -8 -8 -8 -8
-14 -14 -12 -12 -11 -11 -10 -12 -12 -13 -13 -12 -12 -12 -12 -12 -12 -12 -11 -12 -11 -11 -11 -11 -10 -10 -10 -10 -10 -10 -10 -10 -10 -10 -10 -9 -9 -9 -9 -9 -9 -9 -8 -8 -8 -8 -8 -8 -8
-15 -15 -13 -12 -12 -11 -12 -12 -12 -14 -13 -13 -12 -11 -12 -13 -13 -12 -12 -12 -12 -11 -11 -11 -11 -10 -10 -10 -10 -10 -10 -10 -10 -10 -10 -10 -9 -9 -9 -9 -9 -9 -8 -9 -9 -8 -9 -8 -8
-15 -15 -14 -13 -14 -14 -14 -13 -13 -13 -13 -13 -12 -11 -12 -13 -13 -13 -12 -12 -12 -11 -11 -11 -11 -11 -10 -10 -10 -10 -10 -10 -10 -10 -10 -10 -10 -10 -10 -9 -9 -9 -9 -9 -9 -9 -9 -9 -9
-16 -15 -14 -15 -15 -14 -14 -13 -12 -13 -14 -14 -13 -11 -12 -13 -13 -13 -13 -12 -12 -11 -11 -11 -11 -11 -11 -10 -10 -10 -10 -10 -10 -10 -11 -10 -10 -10 -10 -10 -9 -9 -9 -9 -9 -9 -9 -9 -9
-16 -16 -16 -16 -16 -16 -15 -14 -13 -13 -13 -14 -13 -12 -12 -13 -13 -12 -13 -13 -13 -12 -12 -12 -12 -11 -11 -11 -11 -11 -11 -10 -10 -10 -11 -10 -10 -10 -10 -10 -10 -10 -10 -10 -9 -9 -9 -9 -9
-17 -17 -17 -17 -17 -17 -16 -15 -14 -13 -13 -14 -14 -13 -12 -13 -13 -12 -13 -13 -13 -12 -12 -12 -12 -12 -12 -11 -11 -11 -11 -10 -10 -11 -11 -11 -10 -10 -10 -10 -10 -10 -10 -10 -10 -10 -9 -9 -9
-18 -18 -19 -19 -18 -18 -17 -16 -15 -14 -14 -14 -14 -13 -13 -13 -13 -13 -13 -13 -13 -12 -12 -12 -12 -12 -12 -11 -11 -11 -11 -11 -11 -11 -11 -11 -10 -10 -10 -10 -10 -10 -10 -10 -10 -10 -9 -9 -9
-20 -21 -21 -21 -21 -20 -19 -18 -17 -15 -15 -15 -15 -14 -13 -13 -14 -13 -13 -13 -13 -13 -13 -12 -12 -13 -13 -13 -12 -11 -11 -11 -10 -10 -11 -11 -11 -11 -11 -11 -11 -10 -10 -10 -10 -10 -10 -10 -9
-22 -22 -22 -23 -23 -23 -23 -20 -19 -17 -18 -15 -15 -15 -14 -14 -14 -14 -13 -13 -13 -13 -13 -12 -13 -12 -13 -13 -12 -11 -11 -11 -11 -11 -11 -11 -11 -11 -10 -11 -11 -11 -10 -10 -10 -10 -10 -10 -9
-23 -23 -23 -23 -23 -23 -24 -21 -21 -20 -19 -18 -16 -16 -15 -14 -15 -15 -14 -14 -14 -13 -13 -13 -12 -12 -13 -14 -13 -12 -11 -11 -11 -11 -11 -11 -11 -11 -11 -10 -10 -11 -10 -10 -10 -10 -10 -10 -10
-26 -25 -25 -24 -25 -24 -24 -23 -23 -23 -21 -20 -18 -17 -15 -15 -15 -16 -14 -14 -14 -14 -13 -13 -13 -12 -13 -14 -14 -12 -12 -11 -11 -11 -11 -11 -11 -11 -11 -11 -11 -10 -11 -10 -10 -10 -10 -10 -10
-28 -28 -28 -26 -27 -25 -25 -24 -24 -24 -23 -21 -18 -17 -16 -16 -16 -15 -15 -14 -14 -14 -14 -13 -13 -13 -13 -14 -13 -13 -13 -12 -11 -11 -11 -11 -11 -11 -11 -11 -11 -11 -11 -10 -10 -10 -10 -10 -10
-30 -29 -29 -29 -27 -26 -26 -25 -24 -25 -24 -23 -20 -18 -17 -16 -16 -16 -15 -14 -14 -14 -14 -14 -13 -13 -13 -13 -13 -13 -13 -12 -12 -11 -11 -11 -11 -11 -11 -11 -11 -11 -11 -11 -11 -10 -10 -10 -10
-30 -30 -29 -29 -29 -27 -27 -25 -25 -25 -24 -23 -21 -19 -17 -16 -17 -16 -16 -14 -14 -14 -13 -14 -13 -13 -13 -13 -13 -13 -13 -13 -13 -12 -11 -11 -11 -11 -11 -11 -11 -11 -11 -11 -11 -11 -11 -10 -10
-30 -30 -30 -29 -30 -29 -28 -26 -25 -25 -24 -23 -21 -21 -19 -17 -18 -17 -16 -15 -13 -14 -14 -14 -13 -13 -13 -13 -13 -13 -13 -13 -12 -12 -11 -11 -11 -11 -11 -11 -11 -11 -11 -11 -11 -11 -11 -11 -10
-31 -30 -30 -29 -30 -29 -28 -27 -26 -25 -24 -23 -22 -21 -21 -19 -18 -17 -14 -15 -14 -14 -14 -13 -13 -12 -13 -13 -13 -13 -13 -13 -13 -13 -12 -12 -11 -11 -11 -11 -11 -11 -11 -11 -11 -11 -11 -10 -10
-30 -30 -30 -30 -30 -29 -29 -28 -27 -25 -24 -23 -22 -22 -21 -21 -19 -18 -16 -15 -14 -14 -14 -13 -14 -13 -13 -13 -12 -13 -13 -13 -13 -13 -14 -12 -12 -11 -11 -11 -11 -11 -11 -11 -11 -11 -11 -11 -11
-29 -30 -30 -30 -30 -29 -30 -29 -27 -25 -24 -23 -23 -22 -21 -20 -19 -19 -16 -15 -14 -14 -14 -14 -14 -14 -13 -13 -13 -12 -13 -13 -13 -13 -13 -13 -13 -12 -12 -11 -11 -11 -11 -11 -11 -11 -11 -11 -11
-30 -30 -30 -30 -30 -29 -29 -28 -27 -26 -24 -24 -23 -21 -21 -20 -20 -19 -17 -16 -15 -15 -15 -14 -14 -14 -14 -13 -13 -13 -13 -13 -12 -13 -13 -13 -13 -13 -12 -12 -12 -12 -12 -12 -11 -11 -11 -11 -11
-29 -30 -30 -30 -30 -30 -29 -28 -27 -26 -25 -24 -23 -21 -21 -20 -20 -19 -19 -17 -16 -16 -15 -14 -14 -14 -13 -13 -13 -13 -13 -13 -13 -13 -13 -13 -13 -13 -13 -13 -13 -13 -12 -12 -12 -12 -12 -11 -11
-30 -30 -30 -30 -30 -30 -30 -29 -28 -27 -26 -24 -24 -23 -22 -20 -20 -20 -19 -19 -17 -16 -15 -15 -14 -14 -14 -14 -13 -14 -13 -13 -13 -13 -13 -13 -13 -13 -12 -12 -12 -12 -13 -13 -13 -12 -12 -12 -11
-30 -30 -31 -31 -30 -30 -30 -30 -28 -27 -26 -25 -24 -23 -22 -21 -20 -20 -20 -19 -18 -17 -17 -16 -15 -15 -14 -14 -12 -13 -12 -13 -13 -13 -12 -13 -13 -13 -13 -12 -12 -12 -12 -12 -12 -12 -12 -11 -11
-30 -30 -30 -31 -31 -30 -30 -29 -29 -28 -27 -26 -24 -23 -22 -22 -20 -20 -21 -19 -18 -18 -18 -17 -16 -15 -15 -14 -14 -12 -14 -13 -13 -13 -13 -13 -13 -13 -13 -13 -13 -12 -12 -12 -12 -12 -12 -12 -11
-29 -30 -31 -31 -31 -30 -30 -29 -29 -28 -27 -26 -25 -24 -23 -22 -21 -20 -20 -19 -19 -18 -18 -17 -17 -16 -15 -14 -14 -14 -14 -13 -13 -13 -13 -13 -13 -13 -13 -13 -13 -13 -12 -12 -12 -12 -12 -12 -12
Height
5780 5779 5779 5780 5781 5777 5779 5785 5794 5797 5799 5800 5800 5800 5802 5803 5808 5815 5818 5818 5820 5821 5822 5825 5827 5831 5835 5837 5840 5844 5847 5850 5852 5853 5854 5857 5861 5864 5865 5867 5869 5871 5874 5876 5878 5880 5881 5883 5885
5773 5773 5772 5772 5772 5772 5775 5782 5786 5792 5793 5793 5793 5794 5795 5798 5803 5808 5812 5811 5814 5816 5819 5821 5823 5827 5831 5833 5837 5842 5845 5848 5850 5852 5854 5856 5860 5863 5865 5867 5870 5872 5874 5876 5878 5881 5883 5884 5886
5764 5764 5764 5762 5763 5763 5768 5776 5781 5784 5787 5785 5786 5786 5788 5793 5800 5802 5805 5807 5810 5812 5815 5817 5820 5824 5827 5830 5834 5839 5842 5845 5849 5850 5853 5855 5859 5863 5865 5868 5869 5872 5875 5877 5879 5881 5883 5885 5886
5753 5754 5754 5753 5755 5758 5760 5766 5770 5772 5776 5777 5779 5781 5783 5789 5795 5797 5800 5802 5805 5808 5809 5813 5816 5821 5824 5827 5831 5836 5840 5843 5846 5848 5850 5855 5857 5862 5865 5867 5869 5872 5875 5877 5879 5882 5883 5885 5887
5743 5743 5742 5745 5749 5749 5751 5755 5758 5763 5768 5769 5769 5772 5778 5783 5789 5792 5795 5798 5801 5803 5806 5808 5813 5816 5819 5823 5827 5833 5836 5840 5844 5847 5849 5853 5856 5860 5864 5866 5869 5872 5875 5877 5879 5881 5884 5885 5887
5731 5732 5731 5734 5739 5738 5739 5744 5747 5753 5758 5761 5762 5762 5771 5777 5783 5786 5790 5793 5796 5798 5801 5806 5809 5813 5816 5819 5823 5829 5833 5837 5841 5844 5847 5851 5854 5859 5862 5865 5868 5871 5874 5876 5879 5881 5883 5885 5888
5718 5717 5718 5721 5724 5726 5727 5733 5736 5742 5747 5752 5753 5754 5761 5769 5777 5781 5784 5787 5791 5794 5797 5802 5804 5809 5812 5816 5820 5825 5829 5834 5838 5842 5846 5848 5852 5857 5860 5863 5867 5870 5873 5876 5878 5881 5883 5885 5888
5706 5701 5703 5707 5711 5711 5714 5715 5723 5725 5735 5740 5742 5743 5750 5762 5768 5773 5778 5781 5785 5790 5793 5797 5801 5806 5809 5812 5816 5821 5825 5830 5835 5839 5843 5846 5850 5855 5858 5862 5865 5869 5872 5874 5877 5880 5883 5886 5888
5687 5685 5688 5695 5696 5694 5695 5698 5704 5713 5723 5729 5735 5736 5739 5748 5757 5762 5768 5774 5778 5784 5789 5793 5797 5802 5806 5809 5812 5817 5821 5826 5831 5835 5840 5844 5848 5853 5856 5860 5864 5867 5870 5873 5876 5879 5882 5885 5888
5668 5666 5675 5671 5670 5669 5670 5674 5682 5693 5704 5717 5722 5726 5730 5735 5745 5753 5760 5768 5775 5780 5786 5790 5794 5799 5801 5806 5808 5813 5817 5822 5827 5833 5837 5842 5846 5851 5854 5859 5863 5866 5870 5872 5876 5879 5881 5885 5887
5644 5647 5653 5645 5644 5642 5648 5656 5660 5674 5690 5701 5709 5714 5719 5725 5734 5743 5753 5760 5770 5775 5778 5784 5790 5794 5798 5802 5805 5809 5814 5818 5822 5827 5833 5838 5843 5849 5853 5857 5861 5864 5868 5871 5875 5878 5881 5884 5887
5613 5617 5615 5619 5616 5616 5622 5629 5639 5649 5672 5683 5693 5699 5705 5715 5724 5735 5743 5751 5757 5765 5773 5777 5783 5789 5794 5798 5800 5804 5809 5813 5818 5823 5829 5834 5841 5846 5851 5855 5858 5862 5866 5870 5873 5877 5880 5883 5886
5582 5582 5575 5576 5581 5586 5593 5600 5611 5626 5643 5663 5675 5685 5691 5701 5712 5723 5732 5742 5749 5755 5763 5769 5776 5782 5788 5793 5797 5800 5804 5808 5812 5818 5824 5830 5837 5842 5847 5852 5856 5859 5864 5868 5872 5876 5879 5881 5885
5547 5543 5544 5544 5547 5551 5561 5575 5581 5606 5614 5637 5652 5665 5674 5684 5698 5709 5718 5727 5739 5746 5754 5762 5769 5776 5780 5787 5793 5797 5799 5804 5808 5813 5820 5825 5832 5837 5843 5849 5853 5857 5861 5866 5870 5874 5877 5880 5883
5519 5515 5517 5522 5524 5530 5534 5545 5557 5580 5588 5609 5631 5647 5656 5667 5680 5695 5706 5716 5729 5739 5746 5754 5762 5769 5774 5780 5785 5791 5796 5799 5803 5808 5814 5820 5826 5833 5839 5845 5849 5853 5858 5862 5867 5871 5875 5878 5880
5494 5490 5495 5500 5504 5512 5514 5537 5544 5547 5565 5587 5610 5619 5629 5647 5662 5680 5693 5705 5716 5726 5733 5742 5751 5760 5767 5774 5779 5785 5791 5795 5799 5803 5808 5813 5821 5828 5834 5841 5846 5850 5855 5859 5863 5868 5872 5875 5878
5473 5471 5474 5483 5485 5494 5505 5517 5518 5527 5545 5554 5575 5596 5612 5630 5645 5659 5671 5684 5694 5711 5721 5729 5739 5748 5758 5766 5772 5778 5784 5789 5794 5798 5803 5808 5815 5822 5830 5836 5842 5847 5851 5856 5860 5864 5868 5872 5875
5460 5458 5459 5465 5473 5482 5494 5495 5506 5519 5529 5543 5566 5582 5599 5612 5630 5644 5661 5674 5684 5692 5705 5718 5729 5740 5747 5755 5762 5769 5776 5783 5788 5793 5798 5803 5809 5817 5825 5831 5837 5842 5847 5852 5856 5860 5864 5868 5871
5450 5449 5450 5455 5458 5470 5477 5484 5496 5507 5517 5530 5550 5569 5584 5597 5615 5631 5647 5661 5673 5683 5690 5703 5714 5727 5734 5743 5753 5761 5770 5777 5783 5789 5793 5799 5805 5812 5819 5826 5832 5837 5843 5846 5851 5856 5860 5863 5867
5447 5444 5444 5448 5450 5459 5465 5476 5485 5498 5507 5519 5537 5556 5572 5586 5601 5619 5634 5649 5661 5673 5682 5690 5700 5715 5726 5736 5745 5755 5762 5769 5777 5784 5789 5794 5800 5807 5813 5820 5827 5833 5837 5842 5848 5852 5855 5859 5863
5444 5441 5441 5443 5446 5453 5460 5469 5478 5491 5500 5511 5526 5543 5559 5573 5589 5607 5622 5639 5649 5662 5672 5682 5690 5699 5712 5725 5735 5744 5752 5759 5765 5773 5781 5789 5795 5802 5808 5814 5820 5826 5832 5837 5841 5846 5850 5854 5857
5443 5439 5438 5439 5443 5450 5456 5464 5472 5482 5493 5504 5516 5533 5550 5561 5578 5597 5613 5624 5636 5649 5663 5674 5675 5693 5702 5712 5724 5734 5746 5756 5765 5772 5779 5784 5790 5797 5803 5808 5814 5819 5826 5831 5836 5840 5844 5848 5852
5442 5439 5436 5437 5440 5446 5452 5459 5464 5476 5487 5497 5509 5525 5540 5551 5566 5584 5599 5615 5631 5636 5651 5661 5661 5682 5695 5706 5716 5725 5735 5745 5754 5762 5769 5776 5783 5790 5796 5802 5807 5813 5820 5824 5829 5834 5838 5842 5846
5442 5438 5436 5437 5439 5444 5449 5454 5461 5472 5481 5491 5502 5516 5533 5545 5556 5573 5590 5603 5617 5629 5634 5650 5662 5674 5686 5698 5709 5717 5727 5736 5744 5753 5760 5767 5775 5783 5789 5795 5801 5807 5813 5819 5823 5827 5832 5836 5839
5443 5439 5437 5439 5439 5443 5448 5452 5459 5468 5476 5486 5496 5508 5522 5534 5545 5563 5579 5587 5600 5613 5632 5644 5654 5665 5678 5687 5699 5710 5719 5726 5734 5744 5753 5761 5768 5774 5781 5788 5795 5801 5807 5812 5816 5821 5826 5829 5833
5444 5441 5439 5439 5440 5442 5446 5450 5459 5466 5473 5481 5490 5502 5517 5531 5539 5551 5567 5580 5589 5603 5617 5623 5639 5657 5667 5678 5686 5700 5711 5717 5724 5733 5742 5750 5759 5766 5772 5778 5784 5789 5796 5803 5808 5813 5817 5822 5826
5447 5443 5441 5440 5441 5444 5446 5450 5458 5464 5470 5477 5485 5496 5509 5522 5533 5541 5556 5570 5581 5594 5607 5619 5633 5640 5656 5667 5670 5687 5701 5708 5715 5723 5731 5738 5746 5754 5762 5768 5775 5781 5786 5792 5798 5804 5809 5814 5818
5450 5446 5443 5441 5442 5444 5446 5450 5455 5461 5467 5473 5481 5492 5500 5514 5525 5532 5546 5562 5574 5585 5598 5609 5621 5632 5646 5656 5662 5677 5688 5698 5705 5715 5720 5727 5735 5742 5750 5757 5764 5770 5776 5782 5788 5794 5799 5804 5809
5455 5448 5444 5443 5443 5444 5447 5451 5453 5458 5464 5470 5476 5485 5494 5507 5513 5527 5536 5552 5565 5576 5588 5600 5611 5624 5635 5646 5656 5655 5674 5689 5697 5706 5713 5720 5726 5733 5740 5747 5753 5759 5766 5772 5778 5784 5789 5795 5799
5456 5450 5446 5443 5444 5444 5445 5450 5452 5456 5461 5466 5472 5481 5488 5499 5510 5519 5526 5541 5555 5567 5578 5589 5600 5611 5624 5632 5640 5652 5663 5675 5684 5697 5703 5709 5716 5724 5731 5737 5744 5749 5755 5761 5767 5774 5780 5785 5790
Wind_Speed
29 31 34 37 39 37 36 33 24 24 24 24 29 35 38 37 31 26 26 23 23 23 24 23 20 25 25 23 21 21 18 17 15 15 15 15 13 13 15 16 16 15 18 20 17 16 16 14 12
33 34 36 37 40 40 37 33 25 24 24 28 31 35 37 35 32 29 28 29 29 27 26 19 26 25 25 24 23 22 20 18 16 16 17 16 15 15 14 15 17 16 14 20 18 15 15 13 10
37 37 39 41 41 40 39 34 28 26 27 33 36 37 38 34 25 24 27 29 27 28 21 21 27 27 26 26 25 23 21 20 18 16 18 18 17 17 15 16 17 17 14 16 19 16 14 11 9
40 42 44 46 43 41 40 37 33 31 32 38 39 40 40 33 25 23 23 26 26 24 21 23 27 29 26 25 26 24 23 21 19 18 20 19 18 18 18 17 17 17 14 14 17 17 14 12 9
42 45 48 47 47 47 44 40 36 33 34 41 42 43 40 35 29 26 24 27 29 26 22 27 30 27 27 26 26 26 25 23 20 19 21 20 19 19 20 19 18 17 15 14 16 18 15 12 9
45 46 49 50 48 49 50 44 41 36 37 42 47 48 42 38 33 30 28 26 30 30 27 28 28 26 26 27 27 26 24 24 23 21 22 22 21 20 20 19 19 18 17 17 17 16 15 13 13
49 51 53 52 52 52 53 48 47 40 39 43 50 52 48 41 37 34 33 28 31 32 30 32 31 29 28 27 27 27 27 26 25 23 24 24 23 21 20 20 19 18 18 17 18 17 15 15 13
53 57 59 59 57 57 54 56 52 49 43 46 51 57 53 44 41 40 35 34 33 34 32 31 30 30 29 29 29 28 27 28 27 23 25 26 25 22 21 20 18 17 16 17 18 18 19 16 15
63 65 64 60 62 63 63 62 58 54 49 46 52 58 56 50 47 46 42 40 37 38 35 33 30 32 31 29 29 28 29 29 29 28 26 26 25 24 23 21 19 18 18 19 19 20 18 17 20
66 70 67 68 69 72 73 73 70 63 56 50 53 59 61 56 52 49 46 40 36 37 37 34 33 34 33 31 29 29 27 27 27 29 27 28 27 26 24 23 21 20 20 20 19 18 17 21 19
74 74 70 72 74 76 79 78 78 71 61 57 56 60 63 61 56 54 49 45 37 39 40 37 35 32 32 32 30 27 28 27 26 30 32 31 30 27 25 24 22 22 22 20 19 21 22 20 19
78 76 76 77 80 82 83 85 82 81 69 63 60 62 65 62 58 57 54 50 45 44 40 39 42 36 31 29 31 29 28 28 29 31 34 32 32 30 28 26 25 23 22 23 22 22 21 20 18
80 77 77 78 79 80 82 86 87 85 79 70 66 66 67 65 61 60 59 55 49 48 46 43 38 38 40 31 30 31 29 29 30 32 36 34 35 34 32 29 27 26 25 25 24 22 20 20 18
76 69 64 64 66 70 73 77 85 83 83 77 74 71 72 68 62 62 65 63 56 53 51 47 43 39 39 34 32 31 30 30 30 34 36 37 38 37 36 32 28 27 27 26 24 23 23 20 17
61 58 54 52 54 54 58 70 78 80 79 82 79 75 76 71 68 65 66 66 61 57 54 51 45 44 41 38 35 31 30 30 30 35 37 39 40 39 37 35 31 30 28 26 25 24 23 21 18
52 53 51 51 53 52 55 55 63 73 74 79 81 81 83 78 72 65 67 66 63 64 60 57 52 48 44 41 39 36 33 29 29 35 42 42 42 42 40 38 35 32 30 27 25 24 23 21 18
42 41 42 41 50 53 51 48 58 65 69 76 81 82 86 81 75 71 74 73 73 69 67 63 58 54 47 44 40 36 37 31 30 33 42 44 43 44 42 40 38 35 33 30 28 25 23 21 19
31 32 32 35 42 50 51 53 51 52 59 71 79 83 88 85 77 75 73 74 76 75 73 68 63 57 53 50 46 44 38 36 32 32 38 45 44 44 44 42 40 38 35 33 31 29 26 24 22
28 25 24 25 36 46 52 54 50 47 49 60 73 82 89 88 80 77 74 77 76 78 78 74 71 65 62 56 49 44 41 35 34 32 33 41 44 44 46 44 42 40 37 36 34 31 28 27 26
23 22 19 21 29 39 46 52 52 47 46 50 69 80 87 90 83 79 76 77 79 78 80 78 76 71 66 60 53 48 45 42 36 36 34 36 42 43 44 45 44 42 40 38 36 34 32 30 28
23 19 15 14 23 30 41 50 49 46 45 47 64 76 84 90 83 80 79 78 74 81 79 79 81 79 73 67 58 54 52 50 48 44 40 38 39 42 42 42 44 44 42 40 39 37 35 33 31
24 17 12 10 19 27 34 39 43 44 44 47 61 76 80 86 85 82 66 73 81 83 81 82 83 79 76 72 63 57 52 50 48 45 41 39 39 39 40 42 42 42 40 38 37 36 35 33 31
20 17 10 9 16 26 26 31 38 41 44 49 60 76 79 76 84 83 86 73 72 75 84 77 67 78 76 74 68 61 56 53 52 50 49 47 43 40 40 40 40 40 38 38 38 36 35 33 32
21 18 9 6 14 26 28 32 34 39 44 53 65 75 71 60 84 83 84 72 60 77 70 89 77 76 75 73 70 64 60 56 56 55 53 51 49 44 41 41 40 39 38 37 36 36 34 33 33
25 18 9 4 13 25 33 34 35 38 42 54 65 72 76 60 68 86 91 91 84 59 75 68 80 75 74 75 72 66 62 59 58 57 54 54 51 46 46 43 40 39 38 37 37 36 36 35 34
26 16 9 4 10 21 32 35 36 38 41 55 62 77 68 66 63 76 89 94 93 80 67 70 56 77 76 74 72 69 65 63 61 61 57 55 55 53 52 49 47 45 43 40 40 38 37 37 35
27 17 10 5 6 17 29 35 38 39 38 54 60 80 63 68 63 66 79 85 83 83 76 71 72 56 76 83 61 71 63 66 65 63 61 59 57 56 55 55 53 51 48 46 44 43 42 40 39
30 25 11 6 6 14 25 34 36 42 40 47 58 81 66 77 64 68 68 81 82 82 76 71 71 74 75 77 59 71 73 64 67 64 64 62 60 58 57 57 55 54 53 50 49 48 48 46 44
30 25 17 8 6 12 22 33 38 40 43 45 56 80 68 57 58 69 67 72 84 81 78 74 72 72 76 75 79 42 73 68 67 65 66 64 62 59 58 57 56 55 54 52 50 48 47 46 45
41 29 22 12 9 12 18 29 40 41 39 44 47 74 84 59 54 64 77 74 79 83 81 78 75 76 78 86 61 67 69 76 72 69 68 69 66 62 61 59 57 56 55 55 53 50 46 44 43
Wind_Direction
266 264 259 257 256 259 262 264 257 238 246 244 242 243 244 244 240 241 235 240 236 231 235 247 231 226 225 223 218 216 209 210 200 189 185 178 175 164 167 170 160 150 164 166 158 151 150 143 139
264 263 261 259 257 258 259 261 256 247 242 241 243 242 243 247 245 243 236 241 234 235 234 241 221 221 220 215 216 214 206 206 198 187 186 179 173 166 170 169 162 153 160 174 171 161 152 148 143
262 260 257 256 255 255 261 263 260 247 236 241 238 239 241 244 243 238 230 235 230 232 235 232 221 216 215 213 214 211 205 205 196 185 188 181 175 171 170 172 168 162 161 178 183 170 166 160 151
262 259 257 256 254 254 257 260 252 241 228 234 239 238 239 239 233 227 225 229 225 220 217 211 211 217 209 210 212 206 202 202 196 185 189 184 178 177 175 173 174 173 167 179 186 183 180 170 160
265 260 257 256 256 255 255 257 254 243 233 230 235 238 238 235 225 223 217 225 219 214 213 209 213 215 204 205 208 204 199 200 197 190 190 186 182 183 181 182 181 182 177 188 186 190 185 173 167
274 269 264 260 255 251 251 251 253 245 233 226 236 240 234 232 223 221 219 218 217 211 208 210 204 211 206 207 206 200 198 201 199 192 189 187 186 186 186 189 191 192 192 197 188 184 179 178 164
274 271 270 265 259 254 251 249 248 244 236 225 229 238 238 228 223 222 219 216 215 212 206 211 207 207 206 205 208 206 202 205 204 199 200 188 189 186 189 190 192 195 198 195 190 188 180 174 164
271 269 268 268 265 260 255 251 244 244 233 229 223 230 235 226 222 220 218 220 216 215 209 210 210 208 208 206 208 207 209 209 206 203 195 191 190 186 188 187 187 191 192 187 184 180 173 169 160
272 269 268 268 266 263 260 253 246 244 237 229 226 228 229 225 220 218 216 220 214 215 210 209 212 209 208 206 206 208 207 208 207 198 195 194 189 187 188 186 184 185 186 181 177 176 175 167 157
274 271 270 270 264 260 255 250 245 237 233 226 225 226 228 227 217 217 215 216 217 218 215 214 209 211 206 210 206 205 205 206 205 199 200 196 191 188 188 186 184 182 178 177 179 183 180 167 164
279 277 273 268 264 259 254 250 246 241 231 227 222 223 228 227 219 213 215 210 209 215 215 207 204 203 207 210 208 205 207 206 203 199 203 197 193 190 186 185 184 187 189 186 182 176 174 173 168
284 280 272 265 260 257 253 248 244 241 232 226 221 219 226 225 221 215 211 211 206 210 211 204 210 206 205 207 208 205 206 207 206 200 200 200 194 190 187 184 183 185 183 179 179 180 180 179 174
288 281 273 267 258 253 249 245 242 237 233 223 219 219 222 224 220 212 210 211 205 206 209 204 203 211 208 209 206 205 205 205 204 202 194 200 197 193 189 188 189 188 187 184 184 188 189 186 185
287 279 271 265 259 251 244 241 238 233 233 220 216 214 219 222 217 212 211 206 206 206 205 204 204 207 212 205 206 209 205 206 205 201 196 195 199 196 192 191 194 196 192 193 193 194 193 194 197
284 275 265 259 251 250 244 232 232 230 228 221 213 212 216 219 217 211 211 207 205 207 207 206 204 206 209 204 203 204 207 206 206 203 195 194 200 199 196 193 195 198 198 197 198 197 199 202 208
286 273 260 251 244 240 240 231 228 229 223 220 210 210 213 214 215 207 210 208 204 207 206 207 205 205 208 208 207 208 209 207 207 204 199 197 201 200 199 199 196 201 202 203 204 206 207 211 217
288 272 259 246 240 230 233 233 228 227 223 215 211 207 209 211 211 206 207 206 202 205 207 208 206 204 205 208 205 203 209 206 206 205 204 202 201 201 201 203 201 203 206 208 211 213 217 220 224
289 274 260 245 231 229 225 229 228 226 224 218 210 207 207 209 207 207 206 205 204 202 206 208 208 205 204 210 207 205 206 207 206 207 207 205 203 202 204 205 206 207 210 214 217 218 221 225 232
300 284 261 244 230 220 220 225 226 225 221 220 207 206 206 208 206 206 204 206 206 205 203 207 209 206 206 208 215 216 201 213 210 209 209 209 205 204 206 208 210 211 214 218 220 223 227 230 235
309 294 276 235 229 216 218 219 223 220 218 215 206 204 205 208 207 204 205 206 206 207 207 205 207 209 208 209 212 215 214 214 215 211 212 212 209 207 209 210 214 217 217 222 226 229 232 236 240
324 307 285 244 228 216 213 217 220 219 217 207 204 201 203 209 207 203 204 204 211 208 208 209 208 207 209 210 210 214 214 217 208 207 212 211 211 210 211 212 215 219 222 225 229 232 236 238 241
330 322 293 252 216 213 210 216 217 215 213 205 200 198 200 210 206 201 192 208 207 209 208 213 214 210 209 210 210 212 217 221 224 217 212 215 213 212 213 214 216 218 221 223 227 229 233 236 237
334 327 301 252 201 203 201 207 212 211 207 201 197 197 199 209 206 203 203 205 209 210 210 213 217 211 210 212 212 212 216 217 216 218 221 209 215 213 214 216 219 221 221 223 225 227 230 233 236
351 339 317 253 195 196 193 199 205 207 202 200 192 189 193 200 211 203 199 190 198 207 210 210 212 214 210 213 216 213 217 218 219 218 218 223 215 215 217 218 219 221 221 223 225 228 230 231 233
340 344 333 271 195 196 194 201 201 204 200 200 197 192 194 197 215 206 201 206 202 200 206 212 213 215 210 211 215 217 216 218 221 218 217 218 222 224 218 222 225 227 227 227 228 231 233 235 237
1 348 339 303 218 195 197 204 197 200 203 199 200 195 193 198 213 216 208 206 213 212 205 208 201 215 210 212 214 217 219 218 219 220 215 216 218 219 223 225 228 226 225 228 229 230 233 235 237
5 351 347 306 230 205 199 204 197 197 203 201 202 196 199 199 208 219 215 209 210 209 213 210 205 208 209 213 217 212 223 220 220 218 219 215 216 218 220 223 226 228 231 232 231 233 235 237 238
2 2 334 307 231 213 206 203 200 200 203 203 201 196 197 205 201 212 215 211 210 210 211 212 209 208 208 216 220 218 216 224 221 220 220 218 217 218 219 222 223 226 228 230 232 233 236 237 239
4 358 354 317 247 220 212 209 206 204 209 207 205 203 194 194 202 201 209 210 210 211 212 213 213 209 210 211 212 212 211 221 225 220 223 224 221 221 222 223 224 226 229 231 233 234 236 238 239
7 1 357 331 266 230 217 215 211 209 209 208 212 206 210 206 201 204 217 216 214 213 213 211 213 212 209 212 216 220 212 215 219 223 221 225 224 224 225 227 227 228 228 230 232 234 236 238 239